Home > Weather > Cumberland > Past weeks

Flag for USA Weather for the Past 2 Weeks in Cumberland, Maryland, USA

Now
50 °F

Rain. Fog.


Feels Like: 48 °F
Forecast: 51 / 60 °F
Wind: 6 mph from Northwest

Location: Eastern West Virginia Regional Airport

Current Time: May 6, 2016 at 2:09:07 AM

Latest Report: May 6, 2016 at 12:53 AM


Visibility: 4 mi

Pressure: 29.70 "Hg

Humidity: 96%

Dew Point: 49 °F

Location of CumberlandLocation

Historic Weather in Cumberland — Graph

°F

Cumberland Temperature Yesterday

Maximum temperature yesterday: 57 °F (at 3:53 PM)
Minimum temperature yesterday: 50 °F (at 3:53 AM)
Average temperature yesterday: 53 °F

High & Low Weather Summary for the Past Weeks

 TemperatureHumidityPressure
High84 °F (May 2, 4:53 PM)100% (Apr 23, 4:53 AM)30.18 "Hg (Apr 23, 4:53 AM)
Low38 °F (Apr 25, 5:53 AM)20% (Apr 24, 12:53 PM)29.61 "Hg (May 4, 3:53 PM)
Average58 °F76%29.91 "Hg
* Reported Apr 20 11:53 PM — May 5 11:53 PM, Cumberland, Weather by CustomWeather, © 2016

Note: Actual official high and low records may vary slightly from our data, if they occured in-between our weather recording intervals... More about our weather records

Advertising

Cumberland Weather History for the Previous 24 Hours

Scroll right to see more
 ConditionsComfort  
Time TempWeatherWind HumidityBarometerVisibility
11:53 PM
Thu, May 5
51 °FRain. Fog.5 mph92%29.70 "Hg4 mi
10:53 PM52 °FLight rain. Fog.5 mph86%29.70 "Hg6 mi
9:53 PM53 °FLight rain. Overcast.No wind83%29.69 "Hg10 mi
8:53 PM54 °FOvercast.6 mph77%29.68 "Hg10 mi
7:53 PM55 °FOvercast.7 mph74%29.66 "Hg10 mi
6:53 PM56 °FCloudy.10 mph70%29.64 "Hg10 mi
5:53 PM56 °FOvercast.14 mph70%29.64 "Hg10 mi
4:53 PM56 °FMore clouds than sun.8 mph72%29.64 "Hg10 mi
3:53 PM57 °FCloudy.10 mph67%29.64 "Hg10 mi
2:53 PM54 °FMostly cloudy.6 mph77%29.66 "Hg10 mi
1:53 PM54 °FOvercast.8 mph74%29.66 "Hg10 mi
12:53 PM53 °FOvercast.10 mph77%29.67 "Hg10 mi
11:53 AM53 °FOvercast.9 mph80%29.68 "Hg10 mi
10:53 AM53 °FMostly cloudy.9 mph80%29.68 "Hg10 mi
9:53 AM52 °FMostly cloudy.8 mph83%29.68 "Hg8 mi
8:53 AM51 °FMostly cloudy.8 mph86%29.67 "Hg7 mi
7:53 AM50 °FFog.7 mph93%29.67 "Hg5 mi
6:53 AM50 °FFog.6 mph93%29.65 "Hg6 mi
5:53 AM50 °FMostly cloudy.No wind93%29.65 "Hg8 mi
4:53 AM50 °FMostly cloudy.3 mph89%29.66 "Hg9 mi
3:53 AM50 °FOvercast.6 mph93%29.67 "Hg10 mi
2:53 AM51 °FLight rain. Fog.6 mph92%29.67 "Hg2 mi
Weather by CustomWeather, © 2016

See weather overviewHow to use our weather pages